Other Surface Observations
Issued by NWS Tucson, AZ

Current Version | Previous Version | Text Only | Print | Product List | Glossary On
Versions: 1 2 3 4 5 6 7 8 9 10 11 12 13 14 15 16 17 18 19 20 21 22 23 24 25 26 27 28 29 30 31 32 33 34 35 36 37 38 39 40 41 42 43 44 45 46 47 48 49 50
187
SXUS55 KTWC 261616
OSOTWC

WEATHER ROUNDUP FOR SOUTHEAST ARIZONA
NATIONAL WEATHER SERVICE TUCSON AZ
915 AM MST THU MAY 26 2016

AZZ504>506-514-261715-
LOCATION       SKY/WX    TMP DP  RH WIND       PRES   REMARKS
TUCSON         SUNNY     69  27  20 VRB3      30.01S
DAVIS-MONTHAN  SUNNY     67  29  23 NE3       29.99F
CHILDRENS PARK N/A      N/A N/A  25 SE5               PIMA CO DEQ
ALVERNON/22ND  N/A       65 N/A N/A SE3               PIMA CO DEQ
CHERRY/GLENN   N/A      N/A N/A N/A N/A               PIMA CO DEQ
TANGERINE      N/A       67 N/A N/A S3                PIMA CO DEQ
CONTL RANCH    N/A       67  28  23 SE3               PIMA CO DEQ
GRANT/1ST      N/A       66  27  23 E0                PIMA CO DEQ
CRAYCROFT/22ND N/A       65  26  23 S3                PIMA CO DEQ
GOLFLINKS/KOLB N/A      N/A N/A N/A N/A               PIMA CO DEQ
AJO/12TH       N/A       65  29  26 S5                PIMA CO DEQ
SAGUARO EAST   N/A       18 -11  25 S3                PIMA CO DEQ
FAIRGROUNDS    N/A       64 N/A N/A SW1               PIMA CO DEQ
SAGUARO        N/A       69  30  23 S3                *SABINO CYN
SAN CARLOS     N/A       70  25  18 NE2               *SAN CARLOS
GREEN VALLEY   N/A       61  27  27 S4                PIMA CO DEQ
HORSE CAMP CYN N/A       62  29  28 SW4               *ARAVAIPA CYN
RINCON MTNS    N/A       47  18  31 SW3G10            *NR MANNING CAMP
$$

AZZ509>511-261715-
LOCATION       SKY/WX    TMP DP  RH WIND       PRES   REMARKS
SAFFORD        SUNNY     71  22  15 NW10G21   29.97F
STRAY HORSE    N/A       45   8  22 SW11G16           *
TRAIL CABIN    N/A       56  16  20 W7G12             *N OF GRANVILLE
BLACK HILLS    NOT AVBL
DRY LAKE       N/A       51  16  25 SW5G10            *NATANES MTNS
NOON CREEK     N/A       64  25  23 NE4G11            *PINALENO MTNS
COLUMBINE      N/A       35  21  57 SW7G13            *PINALENO MTNS
GUTHRIE        N/A       54  20  26 W6G13             *SW OF GUTHRIE
$$

AZZ502-503-513-261715-
LOCATION       SKY/WX    TMP DP  RH WIND       PRES   REMARKS
NOGALES        SUNNY     65  27  23 VRB3      30.03S
SELLS          N/A       70  33  25 S3                *
SASABE         N/A       66  31  27 SE3               *ALTAR VLY
HOPKINS        N/A       52  22  30 NW5G10            *SANTA RITA MTNS
CARR CYN       N/A       62  27  26 NE3               *W OF HEREFORD
$$

AZZ507-508-512-261715-
LOCATION       SKY/WX    TMP DP  RH WIND       PRES   REMARKS
SIERRA VISTA   SUNNY     63  23  21 VRB5      30.05F
DOUGLAS        SUNNY    N/A N/A N/A SW9       30.02F
EMPIRE MTNS    NOT AVBL
MULESHOE RANCH N/A       62  22  21 W3G10             *PRESERVE
HEADQUARTERS   N/A       62  23  22 W6G13             *CHIRICAHUA MTNS
$$

.............................NOTES.............................
THIS IS AN AUTOMATED COLLECTIVE WITH MINIMAL QUALITY CONTROL.
PIMA CO DEQ SITES HAVE NONSTANDARD WIND SENSOR HEIGHTS.
PIMA CO DEQ SITES DO NOT REPORT WIND GUSTS.
* INDICATES WIND SENSORS LOCATED AT 20 FEET INSTEAD OF 33 FEET.
..............................KEY..............................
SKY/WX - SKY CONDITION/WEATHER
TMP    - TEMPERATURE IN FAHRENHEIT
DP     - DEWPOINT IN FAHRENHEIT
RH     - RELATIVE HUMIDITY IN PERCENT
WIND   - DIRECTION AND SPEED IN MILES PER HOUR (MPH)
VRB    - VARIABLE WIND DIRECTION
PRES   - MEAN SEA LEVEL PRESSURE IN INCHES OF MERCURY
         F - FALLING PRESSURE   R - RISING PRESSURE
         S - STEADY PRESSURE
VSB    - VISIBILITY IN MILES
HX     - HEAT INDEX IN FAHRENHEIT
WCI    - WIND CHILL INDEX IN FAHRENHEIT
N/A    - NOT AVAILABLE
AFB    - AIR FORCE BASE
         DAVIS-MONTHAN IS DAVIS-MONTHAN AIR FORCE BASE
CYN    - CANYON
MTNS   - MOUNTAINS
NCA    - NATIONAL CONSERVATION AREA
NR     - NEAR
VLY    - VALLEY
CONTL  - CONTINENTAL
PIMA CO DEQ - PIMA COUNTY DEPT OF ENVIRONMENTAL QUALITY



USA.gov is the U.S. government's official web portal to all federal, state and local government web resources and services.